Time,TemperatureF,DewpointF,PressureIn,WindDirection,WindDirectionDegrees,WindSpeedMPH,WindSpeedGustMPH,Humidity,HourlyPrecipIn,Conditions,Clouds,dailyrainin,SoftwareType,DateUTC
2013-09-21 00:04:00,69.0,63.0,29.93,ESE,122,5.0,-999.0,81,-99.99,,,-99.99,,2013-09-21 04:04:00,
2013-09-21 00:24:00,69.0,63.0,29.93,SSW,201,3.0,-999.0,82,-99.99,,,-99.99,,2013-09-21 04:24:00,
2013-09-21 00:34:00,69.0,63.0,29.93,SSW,201,3.0,-999.0,82,-99.99,,,-99.99,,2013-09-21 04:34:00,
2013-09-21 00:54:00,68.0,63.0,29.92,NW,321,3.0,-999.0,84,-99.99,,,-99.99,,2013-09-21 04:54:00,
2013-09-21 01:03:00,68.0,63.0,29.92,NW,321,3.0,-999.0,84,-99.99,,,-99.99,,2013-09-21 05:03:00,
2013-09-21 01:23:00,68.0,63.0,29.92,South,179,3.0,-999.0,84,-99.99,,,-99.99,,2013-09-21 05:23:00,
2013-09-21 01:34:00,68.0,63.0,29.92,South,179,3.0,-999.0,84,-99.99,,,-99.99,,2013-09-21 05:34:00,
2013-09-21 01:53:00,68.0,63.0,29.91,East,82,2.0,-999.0,84,-99.99,,,-99.99,,2013-09-21 05:53:00,
2013-09-21 02:02:00,68.0,63.0,29.91,East,82,2.0,-999.0,84,-99.99,,,-99.99,,2013-09-21 06:02:00,
2013-09-21 02:12:00,68.0,63.0,29.91,East,82,2.0,-999.0,84,-99.99,,,-99.99,,2013-09-21 06:12:00,
2013-09-21 02:22:00,68.0,63.0,29.89,ESE,121,3.0,-999.0,85,-99.99,,,-99.99,,2013-09-21 06:22:00,
2013-09-21 02:32:00,68.0,63.0,29.89,ESE,121,3.0,-999.0,85,-99.99,,,-99.99,,2013-09-21 06:32:00,
2013-09-21 02:42:00,68.0,63.0,29.89,ESE,121,3.0,-999.0,85,-99.99,,,-99.99,,2013-09-21 06:42:00,
2013-09-21 02:53:00,67.0,62.0,29.88,SSW,208,3.0,-999.0,84,-99.99,,,-99.99,,2013-09-21 06:53:00,
2013-09-21 03:01:00,67.0,62.0,29.88,SSW,208,3.0,-999.0,84,-99.99,,,-99.99,,2013-09-21 07:01:00,
2013-09-21 03:22:00,67.0,62.0,29.86,South,189,3.0,-999.0,85,-99.99,,,-99.99,,2013-09-21 07:22:00,
2013-09-21 03:32:00,67.0,62.0,29.86,South,189,3.0,-999.0,85,-99.99,,,-99.99,,2013-09-21 07:32:00,
2013-09-21 03:52:00,67.0,63.0,29.85,SE,125,3.0,-999.0,86,-99.99,,,-99.99,,2013-09-21 07:52:00,
2013-09-21 04:03:00,67.0,63.0,29.85,SE,125,3.0,-999.0,86,-99.99,,,-99.99,,2013-09-21 08:03:00,
2013-09-21 04:22:00,67.0,63.0,29.83,SE,129,2.0,-999.0,87,-99.99,,,-99.99,,2013-09-21 08:22:00,
2013-09-21 04:32:00,67.0,63.0,29.83,SE,129,2.0,-999.0,87,-99.99,,,-99.99,,2013-09-21 08:32:00,
2013-09-21 04:52:00,67.0,63.0,29.83,East,97,3.0,-999.0,87,-99.99,,,-99.99,,2013-09-21 08:52:00,
2013-09-21 05:02:00,67.0,63.0,29.83,East,97,3.0,-999.0,87,-99.99,,,-99.99,,2013-09-21 09:02:00,
2013-09-21 05:22:00,66.0,62.0,29.81,ENE,57,3.0,-999.0,87,-99.99,,,-99.99,,2013-09-21 09:22:00,
2013-09-21 05:33:00,66.0,62.0,29.81,ENE,57,3.0,-999.0,87,-99.99,,,-99.99,,2013-09-21 09:33:00,
2013-09-21 05:54:00,66.0,62.0,29.81,SSE,164,5.0,-999.0,88,-99.99,,,-99.99,,2013-09-21 09:54:00,
2013-09-21 06:03:00,66.0,62.0,29.81,SSE,164,5.0,-999.0,88,-99.99,,,-99.99,,2013-09-21 10:03:00,
2013-09-21 06:23:00,66.0,63.0,29.80,NW,325,4.0,-999.0,90,-99.99,,,-99.99,,2013-09-21 10:23:00,
2013-09-21 06:33:00,66.0,63.0,29.80,NW,325,4.0,-999.0,90,-99.99,,,-99.99,,2013-09-21 10:33:00,
2013-09-21 06:52:00,66.0,65.0,29.80,SSE,152,2.0,-999.0,95,-99.99,,,-99.99,,2013-09-21 10:52:00,
2013-09-21 07:03:00,66.0,65.0,29.80,SSE,152,2.0,-999.0,95,-99.99,,,-99.99,,2013-09-21 11:03:00,
2013-09-21 07:23:00,65.0,64.0,29.80,ENE,58,2.0,-999.0,96,-99.99,,,-99.99,,2013-09-21 11:23:00,
2013-09-21 07:33:00,65.0,64.0,29.80,ENE,58,2.0,-999.0,96,-99.99,,,-99.99,,2013-09-21 11:33:00,
2013-09-21 07:52:00,65.0,64.0,29.79,WNW,293,1.0,-999.0,97,-99.99,,,-99.99,,2013-09-21 11:52:00,
2013-09-21 08:02:00,65.0,64.0,29.79,WNW,293,1.0,-999.0,97,-99.99,,,-99.99,,2013-09-21 12:02:00,
2013-09-21 08:22:00,64.0,63.0,29.80,NNE,16,1.0,-999.0,97,-99.99,,,-99.99,,2013-09-21 12:22:00,
2013-09-21 08:32:00,64.0,63.0,29.80,NNE,16,1.0,-999.0,97,-99.99,,,-99.99,,2013-09-21 12:32:00,
2013-09-21 08:52:00,63.0,62.0,29.80,East,91,2.0,-999.0,97,-99.99,,,-99.99,,2013-09-21 12:52:00,
2013-09-21 09:21:00,63.0,62.0,29.80,North,359,2.0,-999.0,97,-99.99,,,-99.99,,2013-09-21 13:21:00,
2013-09-21 09:42:00,63.0,62.0,29.80,North,359,2.0,-999.0,97,-99.99,,,-99.99,,2013-09-21 13:42:00,
2013-09-21 09:53:00,63.0,62.0,29.79,ESE,122,2.0,-999.0,97,-99.99,,,-99.99,,2013-09-21 13:53:00,
2013-09-21 10:02:00,63.0,62.0,29.79,ESE,122,2.0,-999.0,97,-99.99,,,-99.99,,2013-09-21 14:02:00,
2013-09-21 10:22:00,63.0,62.0,29.79,ENE,68,3.0,-999.0,97,-99.99,,,-99.99,,2013-09-21 14:22:00,
2013-09-21 10:32:00,63.0,62.0,29.79,ENE,68,3.0,-999.0,97,-99.99,,,-99.99,,2013-09-21 14:32:00,
2013-09-21 10:52:00,63.0,62.0,29.78,ESE,107,2.0,-999.0,97,-99.99,,,-99.99,,2013-09-21 14:52:00,
2013-09-21 11:01:00,63.0,62.0,29.78,ESE,107,2.0,-999.0,97,-99.99,,,-99.99,,2013-09-21 15:01:00,
2013-09-21 11:22:00,63.0,62.0,29.78,SSE,148,4.0,-999.0,97,-99.99,,,-99.99,,2013-09-21 15:22:00,
2013-09-21 11:34:00,63.0,62.0,29.78,SSE,148,4.0,-999.0,97,-99.99,,,-99.99,,2013-09-21 15:34:00,
2013-09-21 11:55:00,63.0,62.0,29.77,WSW,256,4.0,-999.0,97,-99.99,,,-99.99,,2013-09-21 15:55:00,
2013-09-21 12:05:00,63.0,62.0,29.77,WSW,256,4.0,-999.0,97,-99.99,,,-99.99,,2013-09-21 16:05:00,
2013-09-21 12:24:00,63.0,62.0,29.76,ESE,119,4.0,-999.0,97,-99.99,,,-99.99,,2013-09-21 16:24:00,
2013-09-21 12:34:00,63.0,62.0,29.76,ESE,119,4.0,-999.0,97,-99.99,,,-99.99,,2013-09-21 16:34:00,
2013-09-21 12:54:00,62.0,61.0,29.74,SE,142,4.0,-999.0,97,-99.99,,,-99.99,,2013-09-21 16:54:00,
2013-09-21 13:03:00,62.0,61.0,29.74,SE,142,4.0,-999.0,97,-99.99,,,-99.99,,2013-09-21 17:03:00,
2013-09-21 13:23:00,63.0,62.0,29.72,SSE,163,4.0,-999.0,98,-99.99,,,-99.99,,2013-09-21 17:23:00,
2013-09-21 13:34:00,63.0,62.0,29.72,SSE,163,4.0,-999.0,98,-99.99,,,-99.99,,2013-09-21 17:34:00,
2013-09-21 13:52:00,64.0,63.0,29.71,NE,43,2.0,-999.0,98,-99.99,,,-99.99,,2013-09-21 17:52:00,
2013-09-21 14:02:00,64.0,63.0,29.71,NE,43,2.0,-999.0,98,-99.99,,,-99.99,,2013-09-21 18:02:00,
2013-09-21 14:13:00,64.0,63.0,29.71,NE,43,2.0,-999.0,98,-99.99,,,-99.99,,2013-09-21 18:13:00,
2013-09-21 14:22:00,64.0,63.0,29.71,NE,51,0.0,-999.0,98,-99.99,,,-99.99,,2013-09-21 18:22:00,
2013-09-21 14:32:00,64.0,63.0,29.71,NE,51,0.0,-999.0,98,-99.99,,,-99.99,,2013-09-21 18:32:00,
2013-09-21 14:52:00,64.0,63.0,29.71,East,79,0.0,-999.0,98,-99.99,,,-99.99,,2013-09-21 18:52:00,
2013-09-21 15:02:00,64.0,63.0,29.71,East,79,0.0,-999.0,98,-99.99,,,-99.99,,2013-09-21 19:02:00,
2013-09-21 15:12:00,64.0,63.0,29.71,East,79,0.0,-999.0,98,-99.99,,,-99.99,,2013-09-21 19:12:00,
2013-09-21 15:22:00,64.0,63.0,29.70,East,79,0.0,-999.0,98,-99.99,,,-99.99,,2013-09-21 19:22:00,
2013-09-21 15:32:00,64.0,63.0,29.70,East,79,0.0,-999.0,98,-99.99,,,-99.99,,2013-09-21 19:32:00,
2013-09-21 15:52:00,62.0,61.0,29.70,South,189,0.0,-999.0,97,-99.99,,,-99.99,,2013-09-21 19:52:00,
2013-09-21 16:02:00,62.0,61.0,29.70,South,189,0.0,-999.0,97,-99.99,,,-99.99,,2013-09-21 20:02:00,
2013-09-21 16:12:00,62.0,61.0,29.70,South,189,0.0,-999.0,97,-99.99,,,-99.99,,2013-09-21 20:12:00,
2013-09-21 16:22:00,61.0,60.0,29.69,ESE,122,1.0,-999.0,97,-99.99,,,-99.99,,2013-09-21 20:22:00,
2013-09-21 16:32:00,61.0,60.0,29.69,ESE,122,1.0,-999.0,97,-99.99,,,-99.99,,2013-09-21 20:32:00,
2013-09-21 16:52:00,61.0,60.0,29.69,SSE,159,0.0,-999.0,97,-99.99,,,-99.99,,2013-09-21 20:52:00,
2013-09-21 17:02:00,61.0,60.0,29.69,SSE,159,0.0,-999.0,97,-99.99,,,-99.99,,2013-09-21 21:02:00,
2013-09-21 17:22:00,62.0,61.0,29.68,SSE,151,1.0,-999.0,97,-99.99,,,-99.99,,2013-09-21 21:22:00,
2013-09-21 17:34:00,62.0,61.0,29.68,SSE,151,1.0,-999.0,97,-99.99,,,-99.99,,2013-09-21 21:34:00,
2013-09-21 17:45:00,62.0,61.0,29.68,SSE,151,1.0,-999.0,97,-99.99,,,-99.99,,2013-09-21 21:45:00,
2013-09-21 17:54:00,62.0,61.0,29.69,South,169,0.0,-999.0,97,-99.99,,,-99.99,,2013-09-21 21:54:00,
2013-09-21 18:05:00,62.0,61.0,29.69,South,169,0.0,-999.0,97,-99.99,,,-99.99,,2013-09-21 22:05:00,
2013-09-21 18:24:00,61.0,60.0,29.70,SSE,158,1.0,-999.0,97,-99.99,,,-99.99,,2013-09-21 22:24:00,
2013-09-21 18:33:00,61.0,60.0,29.70,SSE,158,1.0,-999.0,97,-99.99,,,-99.99,,2013-09-21 22:33:00,
2013-09-21 18:53:00,60.0,59.0,29.70,SE,143,2.0,-999.0,97,-99.99,,,-99.99,,2013-09-21 22:53:00,
2013-09-21 19:03:00,60.0,59.0,29.70,SE,143,2.0,-999.0,97,-99.99,,,-99.99,,2013-09-21 23:03:00,
2013-09-21 19:23:00,60.0,59.0,29.71,SSE,152,1.0,-999.0,97,-99.99,,,-99.99,,2013-09-21 23:23:00,
2013-09-21 19:34:00,60.0,59.0,29.71,SSE,152,1.0,-999.0,97,-99.99,,,-99.99,,2013-09-21 23:34:00,
2013-09-21 19:53:00,60.0,59.0,29.71,ESE,102,1.0,-999.0,97,-99.99,,,-99.99,,2013-09-21 23:53:00,
2013-09-21 20:02:00,60.0,59.0,29.71,ESE,102,1.0,-999.0,97,-99.99,,,-99.99,,2013-09-22 00:02:00,
2013-09-21 20:23:00,60.0,59.0,29.72,WSW,255,1.0,-999.0,97,-99.99,,,-99.99,,2013-09-22 00:23:00,
2013-09-21 20:32:00,60.0,59.0,29.72,WSW,255,1.0,-999.0,97,-99.99,,,-99.99,,2013-09-22 00:32:00,
2013-09-21 20:43:00,60.0,59.0,29.72,WSW,255,1.0,-999.0,97,-99.99,,,-99.99,,2013-09-22 00:43:00,
2013-09-21 20:52:00,60.0,59.0,29.72,NNE,12,1.0,-999.0,97,-99.99,,,-99.99,,2013-09-22 00:52:00,
2013-09-21 21:02:00,60.0,59.0,29.72,NNE,12,1.0,-999.0,97,-99.99,,,-99.99,,2013-09-22 01:02:00,
2013-09-21 21:12:00,60.0,59.0,29.72,NNE,12,1.0,-999.0,97,-99.99,,,-99.99,,2013-09-22 01:12:00,
2013-09-21 21:21:00,60.0,59.0,29.72,SE,133,1.0,-999.0,96,-99.99,,,-99.99,,2013-09-22 01:21:00,
2013-09-21 21:32:00,60.0,59.0,29.72,SE,133,1.0,-999.0,96,-99.99,,,-99.99,,2013-09-22 01:32:00,
2013-09-21 21:42:00,60.0,59.0,29.72,SE,133,1.0,-999.0,96,-99.99,,,-99.99,,2013-09-22 01:42:00,
2013-09-21 21:52:00,60.0,59.0,29.74,NW,307,1.0,-999.0,95,-99.99,,,-99.99,,2013-09-22 01:52:00,
2013-09-21 22:02:00,60.0,59.0,29.74,NW,307,1.0,-999.0,95,-99.99,,,-99.99,,2013-09-22 02:02:00,
2013-09-21 22:22:00,60.0,59.0,29.74,South,186,0.0,-999.0,96,-99.99,,,-99.99,,2013-09-22 02:22:00,
2013-09-21 22:32:00,60.0,59.0,29.74,South,186,0.0,-999.0,96,-99.99,,,-99.99,,2013-09-22 02:32:00,
2013-09-21 22:42:00,60.0,59.0,29.74,South,186,0.0,-999.0,96,-99.99,,,-99.99,,2013-09-22 02:42:00,
2013-09-21 22:52:00,59.0,58.0,29.74,SW,225,1.0,-999.0,96,-99.99,,,-99.99,,2013-09-22 02:52:00,
2013-09-21 23:02:00,59.0,58.0,29.74,SW,225,1.0,-999.0,96,-99.99,,,-99.99,,2013-09-22 03:02:00,
2013-09-21 23:22:00,59.0,58.0,29.74,SSW,210,1.0,-999.0,95,-99.99,,,-99.99,,2013-09-22 03:22:00,
2013-09-21 23:34:00,59.0,58.0,29.74,SSW,210,1.0,-999.0,95,-99.99,,,-99.99,,2013-09-22 03:34:00,
2013-09-21 23:54:00,58.0,57.0,29.74,West,262,2.0,-999.0,95,-99.99,,,-99.99,,2013-09-22 03:54:00,